Location: Prairie State College
(41.5244°N, 87.6382°W)
Time: 03:17:30
(UTC-05:00)

ISS - All Passes

Search period start: 02 May 2016 00:00
Search period end: 12 May 2016 00:00
Orbit: 402 x 405 km, 51.6° (Epoch: 02 May)

Date Brightness Start Highest point End Pass type
(mag) Time Alt. Az. Time Alt. Az. Time Alt. Az.
02 May - 07:09:41 10° SSW 07:12:26 26° SE 07:15:13 10° ENE daylight
02 May - 08:45:41 10° W 08:48:48 39° NNW 08:51:54 10° NE daylight
02 May - 10:23:53 10° NW 10:25:55 15° N 10:27:58 10° NNE daylight
02 May - 12:01:10 10° NNW 12:03:22 16° NNE 12:05:34 10° NE daylight
02 May - 13:37:11 10° NW 13:40:24 51° NNE 13:43:35 10° ESE daylight
02 May - 15:14:15 10° W 15:16:36 18° SW 15:18:56 10° S daylight
03 May - 06:18:25 10° SSE 06:20:09 14° SE 06:21:53 10° E daylight
03 May - 07:53:00 10° WSW 07:56:14 68° NNW 07:59:30 10° NE daylight
03 May - 09:30:48 10° WNW 09:33:10 18° NNW 09:35:32 10° NNE daylight
03 May - 11:08:40 10° NNW 11:10:35 14° N 11:12:30 10° NE daylight
03 May - 12:44:49 10° NW 12:47:48 32° NNE 12:50:47 10° E daylight
03 May - 14:21:15 10° WNW 14:24:16 34° SW 14:27:17 10° SSE daylight
04 May - 07:00:31 10° SW 07:03:45 63° SE 07:06:59 10° ENE daylight
04 May - 08:37:44 10° WNW 08:40:26 23° NNW 08:43:09 10° NE daylight
04 May - 10:15:57 10° NW 10:17:47 14° N 10:19:36 10° NNE daylight
04 May - 11:52:28 10° NW 11:55:08 22° NNE 11:57:47 10° ENE daylight
04 May - 13:28:36 10° WNW 13:31:51 69° SW 13:35:06 10° SE daylight
05 May - 06:08:24 10° SSW 06:11:20 31° SE 06:14:17 10° ENE daylight
05 May - 07:44:45 10° W 07:47:46 34° NNW 07:50:48 10° NE daylight
05 May - 09:23:00 10° NW 09:24:57 15° N 09:26:54 10° NNE daylight
05 May - 11:00:04 10° NNW 11:02:23 18° NNE 11:04:41 10° ENE daylight
05 May - 12:36:06 10° NW 12:39:21 62° NNE 12:42:35 10° ESE daylight
05 May - 14:13:31 10° W 14:15:28 15° SW 14:17:25 10° SSW daylight
06 May - 05:16:48 10° S 05:18:59 17° SE 05:21:11 10° E daylight
06 May - 06:51:57 10° WSW 06:55:10 56° NNW 06:58:24 10° NE daylight
06 May - 08:29:55 10° NW 08:32:09 17° NNW 08:34:24 10° NNE daylight
06 May - 10:07:35 10° NNW 10:09:35 15° N 10:11:35 10° NE daylight
06 May - 11:43:41 10° NW 11:46:45 36° NNE 11:49:48 10° E daylight
06 May - 13:20:17 10° WNW 13:23:08 28° SW 13:25:58 10° SSE daylight
07 May - 05:59:22 10° SW 06:02:37 79° SE 06:05:54 10° ENE daylight
07 May - 07:36:47 10° WNW 07:39:23 21° NNW 07:41:59 10° NE daylight
07 May - 09:14:56 10° NNW 09:16:45 14° N 09:18:34 10° NE daylight
07 May - 10:51:18 10° NW 10:54:04 25° NNE 10:56:50 10° E daylight
07 May - 12:27:30 10° WNW 12:30:43 55° SW 12:33:54 10° SE daylight
08 May - 05:07:05 10° SSW 05:10:08 39° SE 05:13:14 10° ENE visible
08 May - 06:43:44 10° W 06:46:40 29° NNW 06:49:35 10° NE daylight
08 May - 08:22:01 10° NW 08:23:54 14° N 08:25:47 10° NNE daylight
08 May - 09:58:53 10° NNW 10:01:19 19° NNE 10:03:44 10° ENE daylight
08 May - 11:34:55 10° NW 11:38:12 76° NE 11:41:27 10° ESE daylight
08 May - 13:12:51 10° WSW 13:14:14 12° SW 13:15:35 10° SSW daylight
09 May - 04:15:14 10° S 04:17:44 21° SE 04:20:16 10° E visible
09 May - 05:50:50 10° WSW 05:54:00 46° NNW 05:57:10 10° NE daylight
09 May - 07:28:55 10° NW 07:31:03 16° N 07:33:12 10° NNE daylight
09 May - 09:06:24 10° NNW 09:08:30 16° N 09:10:34 10° NE daylight
09 May - 10:42:27 10° NW 10:45:36 42° NNE 10:48:43 10° ESE daylight
09 May - 12:19:15 10° W 12:21:53 23° SW 12:24:32 10° S daylight
10 May - 03:24:33 10° SE 03:25:24 11° SE 03:26:16 10° ESE visible
10 May - 04:58:08 10° SW 05:01:24 85° NW 05:04:40 10° NE visible
10 May - 06:35:45 10° WNW 06:38:14 20° NNW 06:40:44 10° NNE daylight
10 May - 08:13:46 10° NNW 08:15:38 14° N 08:17:29 10° NE daylight
10 May - 09:50:01 10° NW 09:52:54 28° NNE 09:55:46 10° E daylight
10 May - 11:26:20 10° WNW 11:29:27 44° SW 11:32:34 10° SSE daylight
11 May - 04:05:42 10° SW 04:08:52 49° SE 04:12:02 10° ENE visible
11 May - 05:42:38 10° W 05:45:27 26° NNW 05:48:18 10° NE daylight
11 May - 07:20:54 10° NW 07:22:45 14° N 07:24:35 10° NNE daylight
11 May - 08:57:35 10° NNW 09:00:08 20° NNE 09:02:40 10° ENE daylight
11 May - 10:33:39 10° NW 10:36:56 88° SW 10:40:12 10° SE daylight
